Viktor Sobol

Olheiro-Chefe - Livyi Bereh
24 Jul 2027
Sábado
Processo

Personalidade

Adaptabilidade (20) Ambição (8) Controvérsia (9) Lealdade (10) Pressão (9) Profissionalismo (17) Espírito Esportivo (4) Temperamento (2)

Perfil

Estilo de Treinamento Democrático
Licença Continental C
Determinação 3
Gestão de Pessoas 2
Motivação 5
Disciplina 6
Satisfação no Trabalho
94%
Fadiga
0%
Função Olheiro-Chefe
Salário 17.5K p/s
Contrato 14.03.2030

Desempenho

Comportamento Bom
Eficácia do Treinamento
33%
Desenvolvimento do Jogador
40%
Prevenção de Lesões
20%
Implementação Tática
35%

Eventos Recentes

Participou de uma reunião de recrutamento agora
Participou de uma reunião de recrutamento 7d atrás
Participou de uma reunião de recrutamento 7d atrás
Participou de uma reunião de recrutamento 7d atrás
Participou de uma reunião de recrutamento 14d atrás
Participou de uma reunião de recrutamento 14d atrás
Participou de uma reunião de recrutamento 14d atrás
Participou de uma reunião de recrutamento 21d atrás

Monitorando agora

92
Jogador Clube Status Habilidade Confiança Observado Última observação Último voto
Pavlo Savchuk Podillia Ativo 66 / 95 44% 1 21.06.2027 -
Andrii Borovskyi Ahrobiznes Ativo 82 / 65 44% 1 15.06.2027 -
Volodymyr Radulskyi Probiy Ativo 75 / 92 41% 1 22.02.2027 -
Mohamed Hamdy Zaky Haras El Hodoud Ativo 79 / 106 40% 1 19.02.2027 -
Pietro Cianci Arezzo Ativo 122 / 104 40% 1 18.02.2027 -
Ibrahim Nurudeen Medeama Ativo 86 / 95 40% 1 18.02.2027 -
Yurii Mykhayliv Nyva Ativo 68 / 67 41% 1 08.02.2027 -
Danylo Holub Bukovyna Ativo 93 / 102 41% 1 25.01.2027 -
Denys Rezepov Nyva Ativo 80 / 107 40% 3 22.01.2027 -
Miloš Jovičić Zabbar St. Patrick Ativo 84 / 74 40% 1 22.01.2027 -
Carlos Rojas Epicentr Ativo 110 / 109 40% 4 21.01.2027 -
Jules Armand Kooh Dynamo Douala Ativo 122 / 117 40% 1 21.01.2027 -
Thomas Appiah Hearts of Oak Ativo 71 / 114 40% 1 19.01.2027 -
Dmytro Shcherbak Prykarpattia Ativo 111 / 77 40% 2 16.01.2027 Mais informações
Clinton N'jie Cotonsport Garoua Ativo 126 / 107 40% 2 15.01.2027 -
Bruno Gomes Valletta Ativo 95 / 108 40% 1 15.01.2027 -
Mykyta Dzen Probiy Ativo 90 / 75 40% 2 14.01.2027 -
Vadym Sydun Epicentr Ativo 99 / 98 40% 3 13.01.2027 -
Gbolahan Salami Aigle Royal de Moungo Ativo 69 / 95 40% 1 13.01.2027 -
Joshua Kayode Lucko Ativo 77 / 97 40% 1 08.01.2027 -
Daniel Ivanov Spartak 1918 Ativo 100 / 107 40% 1 06.01.2027 -
Vasyl Tsiutsiura Prykarpattia Ativo 78 / 92 40% 1 06.01.2027 -
Vasyl Lutsiv Metalist Ativo 94 / 78 40% 4 05.01.2027 Rejeitar
Alex Chidomere Vorskla Ativo 78 / 90 40% 2 04.01.2027 -
Kostiantyn Bychek Kudrivka Ativo 100 / 84 40% 1 04.01.2027 Mais informações
Luis Solignac Trapani Ativo 85 / 123 40% 1 03.01.2027 -
Denys Bezborodko Chernihiv Ativo 92 / 85 40% 2 02.01.2027 -
Lovro Bizjak Beroe Ativo 93 / 103 40% 1 01.01.2027 -
Maksym Voitikhovskyi Bukovyna Ativo 82 / 113 40% 5 30.12.2026 -
Franklin Sasere Birkirkara Ativo 104 / 69 40% 2 30.12.2026 -
Artem Liehostaiev Kudrivka Ativo 95 / 74 40% 2 29.12.2026 -
Yaroslav Kvasov Podillia Ativo 91 / 70 40% 3 29.12.2026 -
Atanas Iliev CSKA 1948 Ativo 93 / 93 40% 1 27.12.2026 -
Matvii Burenko Vorskla Ativo 61 / 83 40% 2 26.12.2026 -
Harrison Inusah BA All Stars Ativo 118 / 108 40% 3 25.12.2026 -
Danylo Honcharuk Probiy Ativo 90 / 78 40% 3 22.12.2026 -
Andrii Boriachuk Nyva Ativo 92 / 107 40% 3 18.12.2026 -
Nikos Karelis Sliema Wanderers Ativo 111 / 79 40% 1 18.12.2026 -
Roman Kuzmyn Ahrobiznes Ativo 102 / 92 40% 3 16.12.2026 -
Vladyslav Nekhtiy Metalurh Zaporizhzhia Ativo 89 / 98 40% 4 15.12.2026 -
David Duris FK Senica Ativo 88 / 97 40% 1 14.12.2026 -
Jiří Klíma Mlada Boleslav Ativo 113 / 120 40% 2 13.12.2026 -
Antonio Vutov Arda Ativo 99 / 90 40% 1 11.12.2026 -
Uroš Đuranović Sliema Wanderers Ativo 87 / 79 40% 1 10.12.2026 -
Patrick Schmidt Tarxien Rainbows Ativo 83 / 78 40% 2 07.12.2026 -
Rodion Plaksa Kudrivka Ativo 98 / 94 40% 2 07.12.2026 -
Denys Ustymenko Obolon Ativo 96 / 108 40% 1 06.12.2026 -
Jan Hladík MFK Ruzomberok Ativo 89 / 102 40% 1 03.12.2026 -
Diamanka Senghor Mosta Ativo 102 / 72 40% 1 01.12.2026 -
Josh Kelly Zlate Moravce Ativo 77 / 77 40% 1 30.11.2026 -
Ivan Bendera Epicentr Ativo 85 / 93 40% 3 29.11.2026 -
Wasiu Jimoh WAFA Ativo 116 / 110 40% 1 29.11.2026 -
Vinicius Baiano Naxxar Lions Ativo 88 / 68 40% 2 27.11.2026 -
Benard Mundi PWD Bamenda Ativo 102 / 78 40% 1 26.11.2026 -
Maksym Marusych Poltava Ativo 87 / 104 40% 2 22.11.2026 -
Bohdan Mohylnyi Inhulets Ativo 103 / 86 40% 2 21.11.2026 -
András Radó Vasas Ativo 106 / 106 40% 1 19.11.2026 -
Danylo Knysh Victoriia Sumy Ativo 86 / 74 40% 2 18.11.2026 -
Jeffrey Sulemana Hasaacas Ativo 101 / 112 40% 1 16.11.2026 -
Milan Tučić ND Gorica Ativo 98 / 101 40% 1 11.11.2026 -
Máté Sajbán Diosgyor Ativo 109 / 106 40% 1 11.11.2026 -
Oleksiy Khoblenko UCSA Ativo 106 / 107 40% 1 09.11.2026 -
Jakub Bednarczyk Gornik Leczna Ativo 101 / 101 40% 1 08.11.2026 -
Jack Vale Spartak Myjava Ativo 79 / 79 40% 1 08.11.2026 -
Matúš Marcin Podbrezova Ativo 110 / 94 40% 1 07.11.2026 -
Mascote Botev Plovdiv Ativo 99 / 103 40% 1 06.11.2026 -
Bohdan Orynchak Probiy Ativo 84 / 82 40% 1 06.11.2026 -
Joseph Atule Barau Ativo 98 / 87 40% 1 05.11.2026 -
David Andrew Ikorodu City Ativo 70 / 69 40% 2 01.11.2026 -
Thomas Agyepong Berekum Chelsea Ativo 107 / 95 40% 1 31.10.2026 -
Jesper Cornelius IK Start Ativo 99 / 115 40% 1 30.10.2026 -
Ismail Sarki Niger Tornadoes Ativo 89 / 77 40% 1 26.10.2026 -
Eugenio Olivera Talleres Ativo 108 / 104 40% 1 23.10.2026 -
Marcos Camarda Santiago Wanderers Ativo 124 / 88 40% 2 22.10.2026 -
Timothy Zechariah Rivers United Ativo 116 / 76 40% 2 20.10.2026 -
Emil Stoev Slavia Sofia Ativo 86 / 101 40% 1 20.10.2026 -
Patrick Pedersen Valur Ativo 94 / 89 40% 1 19.10.2026 -
James Kirby Marsaxlokk Ativo 83 / 67 40% 1 19.10.2026 -
Maksym Hirnyi Probiy Ativo 99 / 75 40% 1 15.10.2026 -
Léiner Escalante Independiente Medellin Ativo 119 / 119 40% 1 15.10.2026 -
Filip Malbašić Admira Wacker Ativo 120 / 122 40% 1 14.10.2026 -
Umar Ada Nasarawa United Ativo 76 / 98 40% 1 13.10.2026 -
Myroslav Trofymiuk Prykarpattia Ativo 96 / 78 40% 1 11.10.2026 -
Jonathan Cañete Portuguesa Ativo 98 / 95 40% 2 10.10.2026 -
Volodymyr Odariuk Poltava Ativo 91 / 105 40% 1 10.10.2026 -
Yeangel Montero Naxxar Lions Ativo 116 / 123 40% 1 08.10.2026 -
José Alí Meza Deportivo La Guaira Ativo 132 / 135 40% 1 06.10.2026 -
Samson Olasupo Remo Stars Ativo 100 / 104 40% 1 03.09.2026 -
Ignacio Sabatini Gimnasia y Esgrima Ativo 117 / 89 40% 1 23.08.2026 -
Sergio Otero Llaneros Ativo 111 / 68 40% 1 20.08.2026 -
Vladyslav Vakula Metalist Ativo 79 / 86 40% 1 19.08.2026 -
Nicolás Sosa Racing Ativo 97 / 134 40% 1 02.08.2026 -